Wind_Speed
13 13 12 10 9 10 12 12 12 13 11 7 5 7 10 10 10 11 11 11 11 10 9 9 9 8 8 8 7 8 9 10 10 10 10 10 10 11 11 10 10 10 11 11 11 10 9 10 12 11 9 7 7 7 7 7 7 6 5 5 5 5 4 4 6 6 3 3 3 1 2 3 1 2 4 7 10 12 9 11 16 15 11 14 18
13 13 11 9 8 9 12 13 12 12 12 9 8 9 11 11 12 12 12 11 10 10 10 10 10 9 9 9 9 9 9 10 11 11 12 13 14 14 12 10 11 12 12 10 9 9 8 8 9 9 8 8 6 5 5 4 4 5 5 4 4 4 3 3 3 3 2 2 2 2 2 4 0 4 7 9 11 12 7 8 12 10 8 12 15
8 7 7 7 8 9 11 12 13 12 11 10 10 10 12 13 13 13 13 12 11 10 10 11 11 10 10 10 9 9 10 11 11 12 14 15 16 16 13 11 13 14 12 9 8 9 9 7 7 8 9 9 6 5 5 3 2 4 4 3 4 3 3 3 2 2 3 1 1 2 2 5 4 3 6 10 14 14 7 5 8 7 9 12 12
10 9 8 8 9 9 9 10 12 12 11 11 11 11 12 13 13 13 13 13 12 11 11 11 11 11 11 10 10 10 10 11 12 12 13 14 15 16 14 13 14 12 10 9 8 8 8 7 7 8 9 9 7 5 5 4 2 3 3 3 3 3 3 3 2 2 1 1 1 1 2 5 5 4 5 8 11 12 8 7 9 9 10 12 13
11 9 9 10 10 10 9 10 11 11 11 11 11 11 12 13 13 13 13 13 13 12 12 12 11 12 12 11 12 11 11 11 12 12 12 12 12 13 13 13 13 11 10 10 9 9 8 7 7 8 8 8 7 5 6 6 4 3 2 2 3 3 2 2 1 0 1 2 3 5 5 4 5 6 8 8 9 9 9 8 9 10 12 13 14
12 10 9 9 10 10 9 9 10 11 12 11 10 10 11 13 14 13 13 13 13 14 14 13 12 12 12 12 13 12 12 12 12 12 13 13 12 12 11 11 12 11 10 11 10 10 10 8 8 9 9 9 8 8 8 9 7 5 5 4 3 2 2 1 1 1 2 3 4 5 6 6 7 8 8 9 10 10 9 10 10 12 14 14 15
12 11 9 8 8 8 8 8 9 10 11 11 11 11 12 13 14 14 14 13 13 14 14 13 13 13 13 13 14 14 14 14 13 13 13 13 13 13 12 12 11 10 10 10 9 10 11 10 10 10 10 10 11 11 10 10 10 9 9 8 4 3 4 3 2 3 3 4 4 5 5 6 8 9 7 8 10 10 10 12 14 16 16 15 16
10 9 9 8 8 8 7 8 8 8 9 10 10 11 11 13 14 14 14 14 14 14 14 14 14 14 14 14 14 15 15 15 15 15 14 14 14 14 13 13 12 12 12 10 10 10 11 11 11 10 11 12 12 12 10 11 11 10 9 7 6 5 5 4 4 4 4 5 6 6 6 6 8 9 8 9 11 11 12 14 16 18 18 18 18
9 8 8 7 7 6 6 6 7 7 8 9 10 11 12 13 14 14 14 14 14 14 14 14 15 15 15 15 16 16 16 16 17 17 17 16 16 15 14 14 13 13 13 12 11 11 11 12 12 12 13 13 13 13 13 12 11 10 8 8 9 9 7 6 6 5 6 7 7 8 9 8 8 9 9 10 12 13 13 14 16 19 19 20 19
9 8 7 6 6 5 4 5 5 6 7 8 9 11 12 12 13 14 15 15 14 14 14 15 16 16 17 17 18 19 18 18 19 19 19 18 18 17 16 17 16 15 14 14 14 15 15 14 13 14 15 13 11 12 13 13 13 13 13 13 13 12 10 8 7 7 8 8 8 8 9 9 10 10 9 11 13 13 13 14 17 20 20 19 18
9 8 7 5 5 4 3 3 4 5 6 6 7 9 10 11 12 13 15 16 17 17 16 16 17 17 18 19 19 21 21 21 21 21 21 20 19 19 19 19 19 18 18 17 17 18 19 17 14 14 15 15 14 14 14 14 14 15 16 16 15 13 13 11 9 8 8 9 8 8 9 10 11 10 11 12 12 12 14 18 20 19 18 17 19
9 8 7 6 5 3 2 1 1 3 4 5 6 7 8 10 11 13 15 16 18 19 19 19 18 19 20 20 20 23 24 23 22 21 21 20 19 20 20 20 21 21 20 19 18 17 17 16 14 13 14 17 18 17 17 17 16 16 17 17 17 16 16 15 11 9 8 7 7 8 9 10 9 9 12 15 15 18 22 24 19 15 16 18 19
9 9 8 7 5 4 3 2 1 2 3 4 5 6 8 9 10 12 14 15 17 19 21 21 21 21 22 21 21 23 24 23 22 22 22 21 20 20 20 21 22 22 21 20 18 16 15 14 13 12 13 17 17 14 16 18 17 16 16 16 17 18 18 16 14 13 13 12 9 7 9 12 10 10 16 21 22 24 26 23 18 17 20 21 23
8 8 7 7 6 5 3 2 2 2 3 4 6 7 8 10 11 13 14 15 17 19 21 22 21 21 22 23 24 23 22 21 22 23 24 24 24 23 23 23 23 23 23 22 20 19 18 16 14 12 12 15 14 12 14 15 14 14 14 14 16 17 17 17 16 16 16 16 13 10 12 16 16 17 22 25 25 26 25 23 22 24 26 27 29
6 7 6 6 5 4 4 3 2 2 3 4 5 7 8 10 12 14 14 16 18 18 20 21 22 23 25 27 28 27 24 23 24 26 26 27 27 27 25 24 25 24 22 21 20 20 20 17 14 11 12 15 14 13 13 13 11 11 12 13 15 16 17 18 17 16 16 16 15 15 17 20 21 21 24 24 25 25 24 24 25 27 27 27 26
6 6 6 6 5 5 4 4 3 3 3 4 5 6 7 10 12 13 14 16 17 19 19 21 23 25 26 27 28 29 28 28 28 28 28 28 29 29 26 26 27 26 22 21 21 20 18 14 12 10 12 15 14 13 13 12 11 11 12 13 15 17 17 16 15 15 16 16 16 18 20 21 21 23 24 24 23 23 23 24 25 23 22 21 20
6 6 6 6 5 5 5 5 5 4 5 5 6 6 7 8 9 11 12 14 16 17 18 20 22 22 22 24 25 25 25 26 27 27 27 27 28 28 25 24 26 26 23 21 21 20 18 15 11 11 15 17 14 12 12 11 11 12 12 13 15 16 15 14 14 15 15 17 18 19 21 22 23 23 23 22 21 21 22 23 22 20 18 18 19
6 7 7 7 7 7 7 6 6 6 6 7 7 8 8 9 9 10 11 13 14 15 16 18 20 22 22 23 23 22 20 21 23 25 26 27 27 24 22 21 22 24 23 20 19 20 18 15 15 16 18 18 14 12 12 11 10 11 11 12 13 13 13 13 14 16 17 18 19 21 22 22 22 21 21 21 21 21 22 22 22 21 19 18 18
8 9 9 9 9 9 9 9 8 8 8 8 8 9 10 10 11 12 12 13 13 14 15 17 18 21 22 21 22 23 22 22 22 22 23 24 23 20 19 18 18 20 20 18 17 17 16 17 19 19 17 15 13 12 12 12 11 11 11 10 9 8 12 14 14 14 16 18 20 21 21 21 21 21 22 22 21 20 20 21 21 18 16 16 17
12 13 13 12 13 12 11 11 11 10 10 10 10 10 11 12 12 13 14 14 14 15 15 16 17 18 19 19 21 22 23 22 21 21 21 20 18 18 18 18 17 15 15 15 15 16 16 18 19 17 14 13 13 12 13 14 14 13 12 11 10 10 14 17 16 15 16 17 19 19 19 19 19 19 18 18 18 18 18 19 17 14 14 17 18
14 17 18 18 16 14 13 13 13 14 15 15 14 14 13 13 14 14 15 16 16 16 16 16 16 16 17 18 19 19 21 20 19 21 21 18 17 17 17 16 14 13 15 15 14 15 17 17 17 15 14 13 13 13 14 15 15 14 13 13 14 15 16 17 18 18 17 16 15 14 13 12 13 12 11 12 14 15 15 15 14 14 16 18 19
17 19 20 19 18 18 20 20 20 21 22 21 20 18 17 16 15 15 16 17 17 17 17 17 17 17 18 19 19 18 19 18 17 19 19 20 20 19 16 14 14 16 17 16 14 14 16 16 15 15 14 14 14 14 14 15 15 14 12 12 15 18 17 17 16 15 12 10 9 10 10 10 10 10 10 10 11 11 12 13 14 15 17 18 19
20 19 19 19 20 22 24 24 24 24 24 23 23 22 21 19 18 17 18 19 19 19 18 18 18 19 18 19 19 18 18 17 18 19 20 22 23 21 17 16 18 17 15 15 15 14 15 15 15 15 14 13 13 13 13 14 14 13 13 14 15 17 17 16 13 10 8 8 10 11 10 10 9 9 10 10 10 12 14 16 16 15 14 15 16
19 19 20 21 21 21 22 22 23 23 22 22 22 23 22 21 21 21 21 20 21 21 20 19 20 21 20 20 20 18 18 19 22 23 22 23 22 22 20 20 20 18 14 15 16 15 13 13 14 14 13 12 12 12 12 12 13 13 14 14 14 14 12 10 9 8 8 9 9 9 8 9 9 9 10 11 13 15 16 16 14 12 12 13 14
17 18 20 20 21 21 20 21 21 21 21 21 22 23 23 23 23 24 23 23 23 24 23 22 22 24 24 23 21 19 19 22 25 25 24 23 22 23 24 22 21 20 18 17 17 14 11 12 13 12 12 12 12 12 12 12 12 12 12 12 12 11 9 7 6 7 7 7 8 8 8 9 9 10 12 14 14 15 16 15 14 13 14 14 15
17 18 18 19 20 20 20 21 20 20 21 22 23 24 24 24 24 25 25 26 26 26 26 25 25 24 24 22 20 18 17 21 24 25 25 25 24 24 25 22 21 22 21 19 16 11 10 13 13 12 12 13 12 12 12 12 11 11 11 11 9 7 5 6 6 6 6 6 7 8 8 9 10 11 13 13 12 13 15 15 15 14 14 14 15
17 18 18 18 19 19 19 20 21 21 21 22 23 24 25 25 26 26 26 27 28 29 30 29 27 26 25 23 20 17 16 20 24 26 26 26 25 25 25 23 23 24 23 19 15 13 13 13 12 12 12 12 11 11 11 11 11 11 10 8 7 6 7 9 8 7 6 6 7 8 9 10 11 11 11 11 11 12 13 13 14 14 14 15 16
18 18 18 19 19 19 19 19 20 21 22 22 22 23 24 24 26 27 27 27 29 31 32 31 29 25 24 24 22 19 18 20 25 28 28 27 27 26 25 24 24 25 24 20 17 15 14 12 12 13 12 11 12 11 11 11 10 8 6 5 6 7 8 7 6 5 4 5 6 8 10 10 10 10 10 11 12 12 12 13 14 14 14 15 16
18 18 18 18 18 18 19 19 19 21 22 23 23 24 24 25 25 25 24 25 28 31 31 31 29 24 21 21 22 21 20 19 23 27 26 24 23 23 23 24 25 25 23 21 17 15 14 13 14 14 13 13 12 10 9 9 7 6 7 7 6 5 5 3 3 3 4 7 9 10 10 10 9 10 11 12 12 13 13 13 13 14 14 15 16
17 17 17 17 17 17 18 19 19 20 21 22 23 23 24 26 28 28 27 26 27 30 31 29 27 27 27 26 25 25 25 23 24 24 22 19 18 18 18 20 21 19 19 18 16 14 14 14 14 13 13 13 11 9 9 9 7 7 8 6 6 7 6 4 3 5 7 9 10 10 9 9 9 11 12 12 12 13 12 12 13 13 14 15 16
15 16 16 16 16 17 18 18 19 19 19 20 21 23 24 24 26 30 31 29 28 28 28 26 25 28 32 32 29 27 27 26 25 25 21 19 18 16 16 17 16 14 14 16 16 15 15 15 15 15 13 12 10 11 10 9 8 8 7 4 5 6 5 3 4 7 8 8 8 9 9 9 10 11 12 13 13 13 13 13 13 13 14 15 16
17 18 18 18 19 19 20 19 19 19 19 19 20 22 23 24 25 27 29 32 32 30 27 25 24 24 27 30 29 27 26 27 28 28 23 19 17 16 16 17 16 14 15 16 17 17 17 16 15 15 13 12 11 12 11 9 9 9 6 4 4 3 2 4 7 8 7 7 8 8 8 9 11 12 13 13 13 13 13 13 12 13 14 15 15
21 22 22 22 22 21 19 19 18 17 18 18 19 20 21 23 24 25 26 28 31 32 31 29 27 26 26 27 27 28 29 30 31 29 23 17 16 17 17 17 16 16 18 19 19 17 16 15 14 14 14 13 12 12 11 10 9 8 6 5 4 3 3 5 7 6 6 8 9 8 7 10 12 12 12 12 12 13 12 12 13 13 14 15 15
23 23 23 21 20 20 19 19 20 19 18 19 19 19 20 21 22 23 24 23 23 26 30 31 31 31 30 27 25 27 32 34 34 30 23 19 19 20 20 19 18 19 21 21 18 16 16 15 14 14 13 12 12 11 10 9 8 7 6 5 3 2 3 4 5 4 6 9 9 7 8 10 11 11 12 12 11 12 12 12 13 13 13 15 16
22 23 22 21 22 23 23 22 23 22 21 20 19 19 19 20 21 22 22 20 19 20 24 29 32 31 30 27 24 25 29 33 34 30 24 21 23 24 24 24 25 25 25 22 18 17 17 15 14 13 12 12 12 10 9 9 8 6 5 4 3 3 3 3 3 6 9 9 6 6 9 11 11 11 12 11 12 12 13 13 13 13 14 16 18
20 20 21 22 23 24 24 23 22 21 20 20 19 19 19 19 20 21 21 21 22 20 19 24 30 30 28 25 23 22 25 29 32 30 25 23 25 27 29 32 32 30 27 22 18 17 17 15 14 12 11 10 9 8 8 8 8 7 6 5 3 2 3 3 4 6 9 8 5 6 10 11 11 11 12 12 12 12 13 13 13 14 16 18 19
18 18 19 19 21 22 22 22 19 17 17 18 19 20 20 20 20 20 20 20 22 19 16 19 26 29 29 27 25 24 24 25 27 28 29 27 27 30 33 35 35 32 27 21 18 17 16 14 12 11 9 8 8 8 9 9 7 6 6 4 3 3 4 5 5 7 9 8 6 7 10 10 11 11 11 12 12 12 13 13 14 15 16 16 18
15 15 17 20 20 20 18 17 16 15 16 18 18 18 20 21 22 21 20 20 20 19 18 19 24 28 28 27 26 25 24 22 21 22 23 25 28 31 32 33 33 30 24 18 17 17 14 11 11 10 9 9 9 9 9 8 7 5 4 3 2 3 4 4 6 8 9 9 8 8 9 10 11 11 11 12 13 12 13 14 15 15 16 16 18
14 14 16 20 21 19 15 14 14 14 14 15 15 16 18 21 21 19 18 17 16 17 18 18 20 24 24 24 23 24 24 23 22 22 22 26 31 34 33 30 26 23 20 16 15 15 12 10 11 11 11 10 10 8 7 7 6 4 3 2 2 2 2 2 3 5 6 7 7 8 9 10 11 11 11 11 11 11 13 15 17 17 17 18 19
15 13 15 19 19 16 14 13 13 13 13 13 14 15 17 18 16 14 14 15 16 18 19 18 18 17 16 15 15 17 20 22 22 20 20 26 34 35 31 26 21 18 17 15 14 14 13 12 12 12 11 11 9 7 7 7 5 3 2 2 2 1 1 1 2 3 6 8 9 9 12 14 13 10 9 9 10 11 13 16 17 17 17 18 19
14 13 14 15 15 12 11 11 10 11 11 11 12 14 14 12 11 11 12 14 17 17 16 17 17 14 11 9 9 11 15 20 22 19 19 27 33 31 24 20 18 16 16 16 15 14 14 13 13 12 12 12 10 8 7 6 5 3 3 2 2 2 1 2 2 5 7 9 10 12 15 16 12 9 9 10 10 11 13 14 15 16 17 18 20
12 12 12 11 10 10 10 9 8 6 6 6 8 9 7 5 8 13 15 15 14 11 9 12 13 12 10 8 8 8 10 15 19 21 23 27 30 26 20 18 18 17 16 16 16 16 15 14 13 12 11 10 9 7 6 6 5 4 3 2 2 3 2 1 3 6 7 8 10 13 17 16 12 10 10 10 10 11 12 14 15 16 16 17 19
10 10 11 10 8 10 11 10 9 8 8 8 8 7 7 5 4 9 10 8 7 7 7 8 10 10 9 8 8 7 8 12 19 25 27 26 24 21 19 19 19 18 17 16 16 15 14 13 13 12 12 12 10 8 7 7 6 4 3 3 3 4 3 3 5 6 7 8 10 13 16 16 13 11 10 10 10 11 13 15 16 17 17 18 19
9 9 10 9 8 8 9 8 9 9 9 9 9 10 9 7 5 5 5 6 9 10 8 8 9 9 9 8 7 7 10 15 21 26 27 24 20 18 20 21 20 19 18 16 14 14 14 13 13 12 12 13 14 12 9 8 7 5 4 3 3 4 4 4 5 5 6 8 10 13 15 16 14 11 10 10 11 12 13 16 17 17 18 19 18
10 8 7 7 7 8 7 6 8 9 9 8 9 12 11 10 10 12 10 8 8 8 6 6 8 9 10 11 12 13 13 15 20 24 25 23 21 21 22 22 20 19 18 16 15 16 15 13 11 9 8 10 12 11 9 8 6 5 4 3 3 4 4 4 5 5 6 7 10 12 14 16 16 14 11 10 11 13 14 16 17 17 18 18 16
12 8 5 4 5 6 7 6 7 10 11 11 13 14 12 10 10 10 10 10 10 8 6 5 7 10 13 15 17 18 16 16 21 26 26 24 24 23 21 21 21 21 19 17 17 17 15 13 11 10 8 9 10 8 6 5 4 3 2 2 3 3 4 4 5 5 5 7 9 11 13 15 17 16 13 10 11 14 15 16 16 17 17 16 15
11 10 7 5 3 3 4 5 6 8 9 9 11 13 12 11 11 11 10 11 10 10 10 10 11 12 13 14 16 18 17 19 24 28 27 25 23 21 20 19 19 18 17 16 15 15 15 13 12 11 11 10 10 9 7 4 3 2 1 1 1 3 5 5 5 5 5 6 8 10 12 14 16 16 14 11 12 14 16 16 16 16 16 16 17
10 10 9 8 6 4 3 3 5 7 7 6 6 8 9 9 10 10 8 8 8 8 9 9 9 11 11 11 14 19 20 20 22 24 25 24 22 20 18 17 15 14 14 14 13 14 15 12 11 11 10 9 9 8 6 4 3 2 1 1 3 4 5 6 6 5 5 6 7 9 11 13 15 16 15 13 13 14 15 15 16 16 16 18 19
10 9 10 11 10 9 7 6 5 5 6 6 5 5 6 7 8 8 8 8 8 8 8 9 9 11 11 11 16 22 23 21 20 22 24 25 24 21 18 16 13 12 13 11 10 12 13 11 9 9 9 8 7 5 4 3 3 2 1 2 3 5 6 7 7 7 6 6 7 8 10 12 14 15 14 12 13 14 14 15 16 16 17 18 19
10 9 10 11 12 11 11 11 10 8 7 7 6 5 4 5 7 9 10 10 10 10 10 11 12 13 13 15 20 25 25 23 24 25 26 23 20 17 15 13 11 10 10 9 8 8 9 8 7 7 7 6 6 4 3 3 3 2 2 3 4 4 6 7 8 9 8 8 8 9 10 11 12 14 14 12 12 13 14 15 17 17 16 16 17
8 8 9 10 11 11 11 13 14 14 13 12 12 12 10 10 11 12 12 11 11 11 12 14 16 18 18 20 24 26 26 25 24 23 21 18 16 13 11 9 8 8 8 7 7 7 7 6 6 8 7 7 5 4 3 3 3 2 1 2 3 4 5 6 8 9 10 10 10 10 11 11 13 15 14 12 12 12 13 14 17 17 15 15 15
Wind_Direction
185 210 228 230 225 232 228 216 214 216 216 216 199 186 187 184 174 165 161 166 170 165 163 163 161 160 157 153 152 152 155 157 154 144 136 134 134 134 131 125 126 132 132 130 126 122 118 123 127 118 106 112 113 107 115 111 102 101 95 91 95 88 88 110 121 128 144 144 134 154 350 32 75 288 327 341 353 359 351 335 345 358 358 341 334
193 207 217 222 221 218 210 205 205 210 216 208 186 186 189 185 179 169 161 168 171 165 167 168 163 163 161 158 157 152 151 151 148 147 148 149 144 134 127 129 138 139 133 129 131 129 124 130 134 130 127 127 118 116 124 116 112 114 98 93 97 88 92 115 130 140 142 131 157 209 342 32 23 285 321 334 347 360 348 317 334 341 325 330 332
172 188 196 202 209 205 197 197 202 206 208 199 190 195 193 188 188 179 168 170 171 170 174 170 167 168 165 164 162 155 155 155 152 155 157 155 150 143 138 145 151 147 138 138 148 147 144 149 160 162 155 142 132 140 142 125 114 120 104 92 100 99 105 111 108 129 144 154 205 212 293 347 346 317 321 322 336 353 355 310 321 323 306 319 327
161 174 188 195 198 196 191 192 198 201 202 201 202 202 197 196 196 187 178 175 172 175 180 173 171 174 171 170 169 163 165 164 158 157 157 157 159 159 156 157 156 150 145 150 159 164 161 163 176 177 166 156 153 157 156 144 125 126 120 103 109 113 110 105 87 83 154 233 307 291 308 335 343 343 330 323 330 340 341 323 326 329 311 308 314
162 172 185 192 190 187 185 187 193 199 200 205 210 204 199 201 200 193 189 185 179 179 180 178 179 180 178 178 178 174 173 170 165 165 164 161 164 167 165 166 164 159 162 167 169 173 171 170 183 183 177 172 165 160 166 165 158 161 175 162 139 127 108 92 93 83 275 272 287 306 321 322 320 326 324 324 327 324 318 315 319 325 320 310 312
156 165 174 181 180 177 182 186 189 197 200 205 215 212 204 202 200 198 195 193 192 188 182 181 186 188 186 185 185 185 184 180 175 175 175 172 171 172 173 177 177 175 182 184 181 183 181 179 189 192 187 179 174 179 185 178 170 181 206 204 166 152 182 200 175 233 293 298 281 292 308 303 309 325 320 315 326 327 318 314 313 318 320 312 308
151 157 158 164 167 168 179 186 188 197 204 207 216 219 210 201 199 200 200 198 199 197 191 189 190 193 193 193 192 191 191 190 187 185 185 184 184 184 184 187 186 187 193 193 194 202 199 194 200 205 200 193 196 204 206 204 202 195 194 193 187 210 224 225 249 260 278 295 291 292 297 293 305 321 323 313 316 317 316 318 316 317 319 313 309
138 143 144 148 156 162 175 184 188 198 206 209 214 216 211 203 199 200 202 202 202 201 200 198 197 197 198 199 196 193 193 191 191 192 191 193 199 202 204 204 199 201 204 197 200 211 210 208 212 214 211 211 218 225 225 226 222 204 194 196 200 212 220 227 249 261 267 279 287 287 284 284 293 304 316 318 313 310 312 315 314 316 318 315 312
124 127 131 134 143 155 172 188 194 199 206 210 212 211 208 205 203 203 205 207 207 207 206 206 207 205 203 203 200 198 196 193 195 196 193 198 209 214 219 218 208 207 212 208 210 217 217 219 221 219 222 228 232 238 241 236 221 202 201 213 214 217 225 234 248 260 271 280 286 284 285 292 299 304 311 310 306 305 307 310 311 312 313 312 311
117 115 116 122 128 135 156 185 193 198 203 205 209 212 210 208 208 209 211 214 214 214 213 213 214 212 211 209 205 203 200 197 202 205 203 209 218 219 220 222 214 210 212 213 220 225 224 225 225 222 227 238 244 246 248 240 223 208 208 220 230 236 239 243 252 262 267 274 281 287 291 292 295 305 307 301 302 302 301 306 309 310 311 310 308
110 108 107 107 110 116 131 160 173 192 205 203 206 212 210 212 217 219 220 220 219 218 218 218 219 219 218 214 211 211 212 212 216 219 218 221 224 223 225 227 222 218 217 218 225 231 232 231 230 228 233 244 251 251 250 243 231 221 222 236 249 253 249 247 247 252 265 274 277 282 285 282 286 294 291 288 291 284 285 300 308 307 306 305 303
96 97 97 91 91 91 75 83 160 199 206 202 208 216 215 217 223 227 228 226 222 220 219 218 218 219 219 217 215 219 224 228 231 231 230 229 228 230 231 229 226 225 225 227 229 234 241 243 242 246 251 249 247 247 247 244 241 237 239 250 258 257 254 249 238 232 242 255 269 282 282 279 283 284 273 272 274 277 286 298 303 299 296 298 298
84 84 84 80 75 69 56 42 331 274 242 227 228 231 229 228 232 235 235 232 228 224 224 223 219 218 220 220 222 226 231 234 235 236 238 237 237 236 233 230 230 229 227 230 232 235 245 253 253 256 254 245 242 245 244 240 241 244 247 252 256 255 254 249 239 236 236 237 252 274 270 263 265 271 272 276 283 288 293 297 294 290 292 294 294
73 71 69 65 59 53 46 35 7 323 291 276 264 254 248 243 243 243 243 243 240 236 236 236 230 225 227 229 229 231 233 235 238 241 241 242 242 240 234 232 234 233 233 238 242 245 256 267 263 250 241 240 239 239 239 236 236 242 246 247 249 251 251 245 238 239 242 245 252 257 257 262 269 276 280 285 291 295 296 295 293 293 296 297 299
59 57 53 47 39 29 16 2 352 330 306 292 279 272 267 258 255 253 251 251 251 248 247 246 243 239 237 237 238 240 241 241 243 244 242 241 242 241 236 235 238 239 240 244 248 253 260 264 255 237 232 240 234 222 227 235 235 238 240 240 244 245 243 239 237 241 246 250 255 260 266 273 279 282 285 290 293 293 294 294 296 300 303 304 305
50 49 42 35 24 11 358 341 328 318 299 287 280 277 272 269 266 263 258 256 257 257 256 255 254 251 245 243 245 248 249 246 245 245 244 243 244 244 239 237 240 242 242 245 250 251 245 236 229 220 221 231 227 215 222 233 235 238 239 236 238 240 239 239 240 243 248 254 263 270 274 279 282 284 287 290 291 292 294 296 300 305 305 301 298
38 35 26 17 8 357 347 335 323 310 295 287 281 274 270 270 269 262 257 256 258 260 261 260 259 257 252 248 248 250 248 244 241 243 244 242 242 243 239 237 241 243 244 246 247 240 223 206 204 208 214 225 228 220 221 227 229 234 232 224 229 236 237 236 239 245 253 261 269 275 279 282 285 286 289 291 292 294 296 298 301 302 297 294 294
9 5 353 346 343 337 333 329 320 310 300 290 282 275 269 267 266 262 256 254 255 257 259 258 257 258 255 249 247 247 244 238 238 240 242 240 237 236 234 234 237 239 239 238 233 226 212 196 198 209 216 222 223 214 212 210 206 209 205 202 217 234 239 238 242 249 258 266 272 277 280 282 284 286 288 291 293 296 298 299 301 300 297 295 295
330 327 324 323 320 317 317 314 308 303 296 288 282 278 272 268 266 263 258 256 256 255 255 255 256 259 259 253 250 247 241 238 241 242 240 236 230 224 223 225 227 230 228 221 214 213 206 199 207 217 217 214 211 208 207 198 185 186 191 194 205 231 249 254 256 259 266 273 278 281 283 286 290 294 296 297 299 299 301 304 308 308 303 298 297
310 305 302 299 299 302 303 299 296 292 287 283 281 279 275 271 267 263 259 257 256 255 255 252 252 256 257 256 254 248 239 236 240 238 233 227 218 212 212 217 220 218 209 199 201 210 208 202 207 211 210 209 208 207 204 193 180 180 189 198 207 221 236 247 256 267 274 278 281 287 294 298 302 305 305 307 310 311 310 315 317 310 300 298 299
299 294 292 292 292 290 285 281 280 278 275 275 275 274 273 271 267 262 259 256 255 255 252 248 249 249 247 250 252 246 237 234 233 231 227 218 206 200 202 210 210 197 186 183 185 197 202 200 201 204 206 208 207 205 204 196 192 198 202 205 213 221 230 244 258 270 278 283 286 291 298 300 299 298 295 298 306 307 307 311 308 296 292 294 295
292 292 293 291 287 280 276 275 274 272 271 271 271 270 269 268 266 262 258 254 253 252 249 246 247 243 239 244 247 241 235 231 226 223 214 200 192 187 188 198 193 180 181 178 170 184 200 202 204 207 207 208 207 205 205 205 210 223 227 222 224 230 238 251 263 271 279 285 285 284 286 286 284 282 280 282 287 286 284 284 283 282 282 281 279
290 287 285 282 279 277 277 277 275 274 272 270 268 267 266 264 263 259 256 252 250 251 248 244 241 237 236 241 240 234 232 225 213 204 196 188 186 186 187 191 184 177 179 174 170 188 204 202 204 208 206 208 210 206 210 215 221 230 235 236 239 241 246 255 264 269 272 273 274 277 280 280 279 281 284 285 281 277 277 276 276 279 281 278 276
295 287 282 279 278 278 279 278 276 274 271 268 267 266 263 261 258 255 254 251 249 247 245 240 237 234 232 231 227 224 224 215 201 193 190 191 193 193 192 193 187 180 174 173 183 201 205 197 203 209 206 208 213 214 219 224 228 236 242 244 247 249 253 262 269 271 273 277 280 280 278 280 287 287 281 279 280 283 287 286 284 287 291 289 288
308 300 295 289 283 279 277 277 276 273 269 265 262 260 259 258 256 253 251 250 248 247 244 240 239 237 234 231 225 219 215 208 199 194 194 198 200 197 195 198 195 183 173 181 199 210 204 198 204 207 205 209 215 219 224 229 235 243 246 246 248 254 259 260 260 266 273 277 278 277 279 287 291 285 283 290 297 300 302 302 299 297 296 293 291
308 305 304 301 295 289 283 278 276 273 271 266 262 258 256 255 254 252 249 248 248 248 245 241 238 237 236 232 224 216 210 204 200 197 196 199 201 199 198 201 199 187 183 195 209 208 198 201 205 204 206 212 217 222 228 236 242 244 245 249 254 255 252 247 249 258 268 273 277 281 286 292 291 289 296 308 312 305 302 303 301 299 298 296 296
301 300 299 299 299 297 292 286 280 273 269 267 265 261 257 253 252 250 248 247 245 245 245 244 240 238 236 230 219 207 201 205 205 201 198 199 201 200 201 203 201 196 197 205 211 207 202 203 205 207 211 216 220 224 229 236 242 246 251 253 244 232 237 248 255 258 258 268 282 287 289 294 298 299 303 307 304 301 303 305 302 301 300 299 296
297 296 295 293 293 292 290 291 287 280 274 270 267 263 259 256 253 250 248 248 246 245 245 244 240 237 230 223 216 205 198 205 208 204 200 200 200 200 201 202 202 203 207 212 213 210 206 205 205 207 211 214 217 223 231 235 238 240 236 228 234 249 262 273 288 291 267 267 286 294 298 303 305 305 306 307 306 307 308 306 302 301 301 300 298
296 294 292 290 290 289 288 288 286 283 280 276 271 265 260 256 255 253 252 250 247 245 243 239 236 235 226 215 208 199 191 194 202 202 198 196 197 198 199 201 203 206 211 216 217 211 206 206 208 208 209 212 215 218 221 220 216 215 215 212 222 249 266 278 301 290 266 277 296 306 308 309 308 307 309 309 308 307 306 304 304 303 302 301 299
297 295 294 291 290 289 289 288 285 281 279 277 275 271 265 258 254 252 251 250 247 244 244 244 241 238 234 225 210 194 188 191 196 196 193 194 198 200 203 204 205 208 213 218 219 216 212 211 210 210 210 210 206 195 194 197 197 211 228 223 204 218 237 243 246 264 278 296 312 315 311 311 310 310 310 308 306 307 307 305 305 304 303 302 301
299 298 296 292 290 288 286 287 286 283 281 279 277 275 272 267 261 255 250 249 247 244 244 246 241 234 234 232 219 201 197 202 202 196 194 197 201 203 206 207 206 207 213 215 215 216 218 215 212 209 205 200 192 186 190 195 193 199 218 224 208 225 251 255 256 278 299 314 319 316 315 317 314 310 309 308 307 308 308 306 306 306 304 303 301
305 302 298 294 292 289 286 284 282 279 280 280 277 276 274 270 267 262 254 249 246 242 241 243 240 235 237 238 232 222 214 208 201 195 194 197 201 203 207 210 207 200 202 210 214 216 215 212 208 202 193 188 188 187 188 192 192 193 200 204 207 225 257 263 276 298 317 321 320 322 320 317 312 309 307 307 306 307 308 309 309 309 306 303 303
311 309 306 302 296 289 283 281 278 275 275 276 276 276 273 268 268 267 261 254 249 245 243 242 240 238 240 241 239 233 219 204 196 194 193 195 201 203 205 210 209 201 199 205 211 210 206 200 197 193 188 187 188 188 189 191 191 190 189 191 202 223 246 271 295 315 319 313 321 329 318 311 312 309 307 308 309 308 310 311 311 310 308 306 306
317 317 315 311 303 294 286 279 275 271 270 269 270 272 272 270 269 268 263 257 250 246 243 240 237 237 240 240 236 230 223 216 213 212 212 211 207 202 200 204 206 205 204 203 200 197 196 193 190 189 188 186 187 188 188 186 185 185 186 186 191 213 248 285 304 304 302 310 322 324 314 313 315 311 309 311 311 311 314 314 313 311 309 307 307
320 320 321 319 312 306 300 292 283 275 269 264 263 265 268 270 270 269 265 257 249 245 241 235 232 232 236 236 230 225 225 223 217 213 217 218 209 202 201 202 201 202 201 195 189 190 192 189 187 188 186 183 186 186 182 181 182 180 179 179 188 213 252 290 293 298 313 326 331 321 318 319 315 312 313 313 313 315 316 313 310 308 306 306 309
319 317 317 316 312 306 301 298 292 282 271 264 260 258 261 266 269 270 268 260 251 244 235 230 229 227 226 226 221 216 219 218 213 215 226 225 211 206 208 206 201 198 193 186 184 189 190 186 185 186 184 182 183 182 181 182 181 176 177 178 180 216 248 261 274 302 329 353 355 325 323 323 317 315 317 315 314 315 313 312 311 309 307 310 316
320 319 318 315 312 306 296 291 289 280 268 267 267 261 258 263 268 269 269 264 251 237 225 226 228 223 216 214 212 211 218 223 225 233 238 229 217 216 214 205 197 191 185 181 185 187 184 182 181 182 184 184 180 181 183 178 172 182 194 193 191 220 246 268 291 318 347 10 1 328 324 325 321 320 319 316 316 317 315 313 313 310 310 316 322
319 320 319 318 318 314 301 287 281 275 267 270 274 266 260 264 265 262 265 268 254 237 232 230 221 211 208 210 211 215 222 226 229 234 229 216 212 216 210 196 188 185 180 179 184 182 175 177 179 180 185 185 180 183 183 169 161 176 190 184 206 244 275 310 326 336 351 359 346 328 327 329 327 325 322 318 317 316 315 317 322 324 325 327 328
328 319 317 320 322 319 309 294 282 274 271 274 275 268 267 270 264 250 252 262 254 239 238 230 211 203 208 212 214 217 220 219 220 224 216 201 199 201 195 184 180 181 178 176 176 172 171 179 182 180 183 182 178 180 178 163 159 176 180 166 194 254 296 328 332 330 334 336 333 329 329 328 323 320 319 318 317 317 319 327 333 333 328 328 329
334 324 317 323 329 326 316 306 293 280 276 276 275 273 275 275 262 245 250 261 252 236 227 213 197 195 200 202 206 215 219 217 218 217 205 192 190 190 184 173 168 173 178 175 170 170 176 180 177 173 173 173 175 181 176 160 149 155 160 156 176 220 273 327 323 306 315 329 337 336 333 331 326 322 322 324 323 325 327 330 332 330 328 331 333
335 332 328 334 346 348 331 316 307 294 284 282 282 283 283 274 256 249 256 255 244 229 207 183 172 171 168 166 184 207 219 220 215 203 189 187 187 183 175 166 163 169 173 171 168 171 174 170 165 163 161 161 164 170 167 149 135 137 147 151 172 194 167 17 321 295 312 336 342 338 339 341 339 334 333 332 332 332 330 329 331 333 335 336 333
341 345 351 356 357 352 342 337 338 330 316 312 310 309 314 297 259 252 253 244 229 212 184 166 163 163 164 174 194 214 228 222 205 189 181 181 177 168 161 165 170 172 171 166 164 166 165 162 158 156 151 149 151 153 150 140 131 133 145 163 199 208 187 210 280 290 319 343 344 343 350 354 352 343 338 336 334 332 333 336 340 339 335 331 328
353 354 3 4 350 347 357 7 14 21 23 12 5 12 23 8 270 244 241 224 182 150 148 168 174 173 182 200 212 225 228 209 189 179 175 171 163 157 160 167 170 170 165 161 161 162 159 151 147 147 149 151 147 138 134 138 138 141 156 180 221 236 236 252 276 296 327 345 347 352 358 1 358 348 337 333 336 340 340 340 340 337 333 332 331
2 358 3 4 355 2 21 32 35 46 54 50 52 62 60 48 61 95 107 122 127 124 132 167 186 191 197 198 189 189 198 194 184 177 171 161 154 158 165 166 165 162 158 155 156 154 145 143 153 163 168 168 165 162 161 161 162 173 190 205 245 264 268 281 295 308 329 345 352 358 0 2 1 353 338 335 344 348 344 338 336 336 335 334 333
6 5 9 16 11 11 24 35 39 44 46 45 57 68 69 68 73 75 75 90 118 131 150 186 198 191 176 163 159 166 179 184 179 173 165 156 153 158 161 160 159 155 150 149 150 147 144 153 169 172 162 161 171 184 198 200 197 202 216 237 267 281 293 308 312 313 327 345 355 359 359 0 1 357 351 348 349 346 341 338 338 337 335 334 340
6 13 28 46 32 18 18 24 31 33 30 32 44 54 57 62 67 67 69 76 81 81 88 121 149 151 148 152 159 165 167 165 163 162 161 160 157 152 149 150 154 155 154 154 156 155 156 161 162 159 162 170 173 173 182 198 204 212 242 265 283 307 324 327 321 319 329 344 353 356 358 1 1 359 358 354 348 344 342 342 339 336 336 342 351
8 14 26 40 39 27 20 14 19 25 26 34 49 54 53 51 53 62 80 93 91 84 86 95 113 128 134 142 152 157 157 157 159 162 166 169 165 154 147 150 157 160 161 161 163 165 166 164 163 173 190 194 181 164 157 162 176 196 231 277 333 346 345 342 336 332 336 345 351 354 357 359 359 1 4 3 353 345 343 341 338 338 346 357 360
14 16 22 27 25 22 17 4 11 21 21 21 43 61 68 69 66 68 83 98 101 101 101 101 111 125 128 130 137 143 145 149 155 161 165 167 163 156 151 153 157 160 163 167 172 176 175 174 177 181 180 172 167 169 173 176 181 192 184 45 24 6 358 359 357 350 348 351 351 351 355 357 358 2 9 10 356 344 340 341 341 342 350 358 357
24 24 29 34 37 40 37 27 24 33 35 35 45 66 84 89 83 77 77 82 89 100 106 107 115 123 123 128 141 146 145 141 144 151 155 155 153 150 150 151 154 161 166 168 169 172 175 176 173 169 162 158 161 172 178 179 180 173 99 48 26 11 7 9 10 9 5 359 354 354 358 358 357 2 7 3 349 342 342 343 344 347 353 356 352
30 33 37 41 47 51 52 49 48 48 47 49 56 67 84 100 102 95 87 84 86 93 99 109 122 128 129 138 151 157 155 150 149 150 151 150 148 147 148 151 154 157 159 157 153 157 164 166 163 159 157 159 166 174 182 181 172 139 72 31 15 12 12 15 20 22 20 14 9 6 2 358 359 3 5 356 343 343 349 349 347 349 354 353 348
30 34 42 48 51 53 57 62 66 68 69 73 78 80 85 96 106 105 97 92 92 96 102 114 126 133 136 143 152 157 156 153 150 149 147 143 141 141 146 151 147 135 133 141 147 140 129 134 159 171 169 168 175 187 188 174 159 129 54 14 5 8 10 15 23 28 28 26 22 15 10 9 8 6 4 358 349 350 355 354 350 350 351 349 347
Height
1507 1510 1512 1514 1516 1519 1524 1526 1526 1527 1528 1529 1529 1530 1531 1531 1533 1533 1534 1535 1536 1536 1537 1537 1537 1538 1538 1538 1538 1538 1538 1539 1540 1541 1542 1543 1543 1544 1545 1547 1548 1548 1549 1550 1551 1552 1553 1554 1554 1554 1556 1557 1557 1558 1559 1559 1560 1561 1561 1562 1562 1562 1563 1564 1565 1565 1565 1565 1566 1566 1565 1565 1566 1566 1565 1564 1563 1562 1562 1561 1560 1559 1559 1558 1557
1507 1510 1512 1514 1516 1519 1523 1524 1525 1526 1527 1529 1529 1530 1531 1531 1532 1533 1535 1536 1536 1537 1537 1537 1538 1539 1539 1539 1539 1539 1539 1540 1541 1541 1542 1543 1543 1545 1546 1548 1548 1549 1550 1552 1552 1553 1554 1555 1555 1555 1557 1558 1559 1560 1560 1561 1561 1562 1562 1563 1563 1563 1564 1564 1565 1566 1566 1566 1566 1566 1565 1565 1566 1566 1564 1564 1563 1563 1563 1563 1561 1561 1561 1559 1558
1507 1509 1511 1514 1517 1519 1521 1523 1525 1526 1527 1528 1529 1530 1530 1531 1532 1533 1534 1536 1536 1537 1538 1538 1538 1539 1539 1540 1540 1540 1541 1541 1541 1542 1542 1543 1544 1545 1546 1547 1548 1549 1551 1552 1553 1554 1554 1555 1555 1556 1557 1557 1559 1560 1560 1561 1562 1562 1563 1563 1563 1563 1564 1564 1565 1566 1567 1567 1567 1567 1566 1565 1566 1566 1565 1564 1563 1562 1563 1563 1562 1562 1561 1560 1559
1508 1510 1512 1515 1518 1519 1521 1522 1524 1525 1527 1528 1529 1529 1530 1531 1532 1533 1534 1535 1536 1537 1538 1538 1539 1539 1540 1540 1541 1541 1541 1541 1542 1543 1543 1544 1545 1545 1546 1547 1549 1550 1551 1553 1553 1554 1554 1555 1555 1556 1557 1557 1558 1559 1560 1561 1562 1563 1563 1563 1563 1563 1564 1564 1565 1566 1566 1567 1567 1567 1567 1566 1566 1566 1566 1565 1564 1563 1563 1563 1562 1562 1561 1560 1559
1510 1512 1514 1516 1518 1519 1520 1522 1524 1525 1527 1527 1528 1529 1530 1531 1532 1533 1534 1535 1536 1537 1537 1538 1539 1539 1539 1540 1541 1541 1542 1542 1543 1543 1544 1545 1545 1546 1547 1548 1549 1550 1552 1553 1553 1554 1554 1555 1555 1556 1556 1557 1558 1559 1560 1561 1562 1563 1563 1564 1563 1563 1564 1565 1565 1566 1566 1566 1567 1567 1566 1567 1567 1567 1566 1566 1565 1564 1564 1563 1562 1562 1561 1559 1558
1512 1514 1515 1516 1517 1519 1520 1522 1524 1525 1526 1527 1527 1528 1529 1530 1531 1532 1534 1535 1535 1536 1536 1537 1539 1539 1540 1540 1541 1541 1542 1542 1543 1543 1544 1545 1546 1546 1547 1548 1549 1550 1551 1552 1553 1553 1554 1555 1555 1555 1556 1557 1557 1558 1559 1559 1561 1562 1563 1563 1563 1563 1564 1565 1565 1566 1566 1566 1566 1566 1566 1566 1567 1567 1566 1566 1565 1564 1564 1563 1562 1561 1560 1558 1557
1513 1514 1515 1516 1517 1519 1520 1522 1523 1524 1525 1526 1527 1527 1528 1529 1530 1532 1533 1534 1535 1535 1536 1537 1538 1539 1540 1540 1541 1541 1541 1542 1543 1543 1544 1545 1545 1546 1547 1548 1549 1550 1550 1551 1552 1552 1553 1554 1554 1554 1555 1556 1556 1557 1557 1558 1559 1560 1561 1562 1563 1563 1563 1564 1565 1565 1565 1565 1565 1565 1565 1565 1565 1565 1566 1565 1565 1564 1563 1561 1560 1559 1558 1557 1555
1513 1514 1515 1517 1518 1519 1520 1521 1522 1523 1524 1525 1525 1526 1527 1528 1529 1531 1532 1533 1533 1534 1535 1536 1537 1538 1539 1540 1540 1541 1541 1541 1542 1543 1543 1544 1544 1545 1546 1547 1548 1548 1549 1550 1551 1551 1551 1552 1553 1553 1554 1555 1555 1556 1556 1557 1558 1559 1560 1561 1562 1562 1563 1564 1564 1564 1565 1565 1565 1565 1565 1565 1564 1564 1564 1564 1564 1563 1562 1560 1559 1558 1556 1555 1554
1514 1515 1515 1517 1518 1519 1520 1520 1521 1522 1523 1524 1525 1525 1526 1527 1528 1530 1531 1531 1532 1533 1534 1535 1535 1537 1538 1539 1539 1540 1540 1540 1540 1541 1542 1542 1543 1544 1545 1545 1546 1547 1547 1548 1549 1550 1550 1551 1551 1552 1553 1553 1554 1555 1555 1556 1557 1558 1559 1559 1560 1561 1562 1563 1563 1564 1564 1564 1564 1564 1564 1564 1564 1564 1563 1563 1563 1562 1561 1560 1558 1556 1555 1553 1552
1515 1515 1516 1517 1517 1518 1519 1520 1521 1522 1522 1523 1524 1525 1526 1526 1526 1528 1529 1530 1531 1531 1533 1533 1534 1535 1536 1537 1537 1538 1538 1539 1539 1539 1540 1540 1541 1542 1543 1544 1545 1545 1546 1546 1547 1547 1549 1550 1550 1551 1552 1553 1554 1554 1554 1555 1555 1556 1556 1557 1557 1559 1560 1561 1562 1563 1563 1563 1563 1563 1563 1563 1563 1563 1562 1562 1562 1561 1560 1558 1557 1555 1553 1552 1550
1515 1516 1516 1517 1518 1518 1519 1520 1521 1521 1522 1523 1523 1524 1525 1525 1525 1526 1527 1528 1528 1530 1531 1531 1532 1533 1534 1535 1535 1535 1536 1536 1537 1537 1538 1539 1539 1540 1541 1542 1542 1543 1544 1544 1545 1545 1546 1548 1549 1550 1551 1552 1553 1553 1553 1554 1554 1554 1555 1555 1555 1557 1558 1559 1560 1561 1561 1561 1562 1561 1562 1562 1562 1562 1561 1561 1560 1559 1557 1556 1555 1554 1552 1550 1548
1516 1516 1517 1518 1518 1519 1519 1520 1521 1521 1522 1522 1523 1523 1523 1523 1524 1524 1524 1525 1526 1527 1528 1528 1529 1530 1531 1532 1533 1533 1533 1534 1535 1536 1537 1537 1538 1539 1539 1540 1540 1541 1541 1542 1542 1542 1543 1545 1548 1549 1550 1551 1551 1552 1552 1552 1553 1553 1553 1553 1554 1555 1556 1557 1558 1559 1559 1560 1560 1560 1560 1560 1560 1560 1559 1558 1557 1556 1555 1554 1553 1552 1551 1549 1547
1516 1517 1518 1518 1519 1520 1520 1521 1521 1521 1521 1521 1522 1522 1522 1522 1522 1522 1522 1523 1524 1524 1525 1525 1525 1525 1527 1528 1529 1529 1530 1531 1533 1535 1536 1536 1537 1537 1537 1538 1538 1539 1539 1539 1540 1540 1540 1543 1544 1546 1547 1548 1549 1549 1550 1550 1551 1551 1552 1552 1552 1553 1554 1555 1556 1556 1557 1558 1558 1558 1558 1557 1557 1557 1555 1555 1555 1554 1553 1552 1551 1550 1548 1547 1545
1517 1517 1518 1518 1519 1520 1521 1521 1521 1521 1520 1520 1520 1520 1521 1521 1521 1521 1521 1521 1522 1522 1523 1523 1522 1522 1524 1525 1526 1526 1527 1529 1532 1533 1534 1534 1535 1535 1536 1535 1535 1536 1536 1537 1537 1538 1539 1540 1541 1543 1544 1546 1547 1547 1548 1548 1549 1549 1549 1550 1550 1551 1552 1553 1553 1554 1555 1555 1556 1556 1555 1554 1555 1554 1553 1553 1552 1551 1550 1549 1547 1546 1545 1543 1541
1517 1517 1518 1518 1519 1520 1520 1520 1520 1520 1520 1520 1520 1520 1520 1520 1520 1520 1520 1520 1520 1520 1521 1522 1521 1522 1522 1523 1523 1524 1526 1528 1529 1530 1530 1531 1532 1532 1533 1533 1533 1534 1534 1534 1535 1536 1537 1538 1539 1540 1542 1544 1546 1546 1547 1547 1547 1547 1547 1548 1548 1549 1549 1550 1551 1552 1553 1553 1553 1553 1552 1552 1552 1552 1551 1550 1549 1548 1547 1546 1544 1543 1541 1539 1538
1518 1517 1518 1518 1519 1519 1520 1520 1519 1519 1519 1520 1519 1519 1519 1519 1519 1519 1519 1519 1519 1519 1519 1520 1520 1521 1521 1521 1521 1522 1523 1525 1526 1526 1527 1528 1528 1529 1530 1530 1530 1531 1531 1532 1533 1534 1535 1536 1537 1538 1541 1543 1544 1545 1545 1545 1545 1545 1546 1546 1546 1546 1547 1548 1549 1550 1550 1551 1551 1551 1550 1550 1550 1549 1548 1547 1546 1545 1544 1543 1542 1541 1539 1538 1536
1518 1517 1517 1518 1518 1519 1519 1519 1519 1519 1519 1519 1519 1519 1519 1518 1518 1518 1518 1518 1518 1517 1518 1518 1518 1518 1518 1518 1519 1519 1520 1522 1523 1524 1525 1525 1525 1526 1527 1527 1527 1527 1528 1530 1531 1531 1532 1533 1535 1537 1540 1541 1542 1543 1543 1543 1543 1544 1544 1545 1544 1544 1546 1547 1547 1548 1548 1548 1548 1548 1548 1547 1547 1546 1545 1544 1544 1543 1541 1540 1539 1538 1537 1536 1534
1517 1517 1516 1517 1517 1517 1517 1518 1518 1517 1518 1518 1518 1517 1517 1517 1517 1517 1517 1517 1517 1516 1516 1516 1516 1515 1515 1515 1516 1516 1518 1520 1521 1522 1522 1522 1522 1523 1524 1525 1525 1525 1526 1528 1529 1529 1530 1532 1534 1536 1537 1539 1540 1541 1541 1541 1542 1543 1544 1544 1544 1543 1544 1545 1545 1545 1546 1546 1546 1546 1545 1544 1544 1543 1542 1542 1541 1540 1538 1537 1536 1535 1534 1533 1532
1515 1515 1515 1515 1515 1516 1516 1516 1516 1516 1516 1516 1516 1516 1515 1516 1516 1516 1516 1515 1515 1515 1515 1514 1513 1512 1512 1512 1512 1513 1514 1516 1517 1518 1518 1518 1519 1520 1521 1522 1522 1523 1525 1526 1526 1527 1529 1531 1532 1534 1536 1537 1538 1538 1539 1540 1541 1542 1543 1543 1544 1543 1542 1542 1543 1543 1543 1543 1543 1543 1542 1541 1540 1540 1539 1538 1537 1537 1535 1534 1533 1532 1532 1531 1530
1513 1513 1514 1514 1514 1515 1515 1515 1515 1515 1514 1514 1514 1514 1513 1513 1514 1514 1514 1513 1513 1513 1513 1512 1511 1510 1509 1509 1509 1509 1510 1512 1514 1515 1515 1516 1517 1518 1519 1520 1521 1523 1525 1525 1525 1526 1528 1530 1531 1533 1534 1535 1536 1537 1537 1538 1539 1541 1541 1542 1542 1542 1540 1540 1541 1542 1542 1541 1541 1540 1539 1538 1537 1536 1535 1534 1534 1533 1532 1532 1531 1531 1531 1530 1529
1512 1512 1512 1512 1513 1513 1514 1513 1513 1512 1512 1512 1512 1511 1511 1511 1511 1511 1511 1511 1511 1511 1510 1510 1509 1509 1508 1506 1506 1506 1507 1509 1511 1511 1512 1513 1514 1516 1517 1518 1520 1522 1524 1525 1525 1526 1527 1528 1530 1531 1532 1533 1534 1535 1536 1536 1537 1538 1538 1539 1539 1540 1539 1539 1539 1540 1540 1539 1539 1538 1538 1537 1536 1536 1535 1535 1533 1532 1531 1530 1530 1531 1530 1528 1527
1510 1510 1510 1510 1511 1511 1511 1511 1510 1510 1509 1509 1509 1508 1508 1508 1508 1508 1508 1508 1508 1508 1508 1507 1507 1506 1505 1504 1503 1504 1504 1505 1507 1508 1509 1511 1513 1515 1516 1517 1519 1521 1523 1525 1525 1524 1525 1527 1528 1529 1530 1531 1532 1533 1534 1534 1535 1535 1536 1537 1537 1537 1538 1538 1537 1538 1538 1538 1538 1538 1537 1537 1536 1536 1535 1534 1533 1532 1530 1529 1529 1528 1527 1526 1524
1507 1507 1507 1508 1508 1508 1508 1507 1507 1506 1506 1506 1505 1505 1505 1506 1506 1506 1506 1505 1505 1505 1505 1505 1504 1503 1503 1502 1501 1501 1502 1502 1504 1505 1507 1509 1511 1513 1515 1516 1519 1520 1522 1523 1523 1522 1523 1525 1526 1527 1529 1530 1530 1531 1532 1533 1533 1534 1534 1535 1535 1536 1536 1536 1536 1536 1536 1536 1536 1536 1536 1535 1535 1534 1533 1532 1531 1529 1527 1525 1524 1523 1521 1520 1519
1504 1504 1504 1504 1504 1504 1503 1503 1503 1502 1502 1502 1502 1502 1502 1502 1502 1503 1503 1502 1502 1502 1502 1502 1501 1500 1501 1501 1500 1499 1500 1500 1501 1503 1505 1507 1509 1512 1513 1515 1517 1519 1520 1521 1520 1520 1522 1523 1525 1526 1527 1528 1529 1530 1531 1531 1531 1532 1532 1532 1533 1534 1534 1535 1535 1535 1534 1534 1534 1534 1534 1534 1533 1532 1530 1529 1527 1525 1523 1521 1520 1519 1518 1517 1516
1502 1501 1500 1500 1499 1499 1499 1498 1499 1499 1499 1499 1498 1498 1498 1498 1498 1499 1499 1499 1499 1499 1498 1499 1498 1497 1498 1499 1498 1497 1498 1498 1498 1500 1503 1506 1508 1510 1512 1514 1515 1517 1518 1518 1518 1519 1521 1522 1523 1524 1525 1526 1527 1528 1529 1529 1529 1530 1530 1531 1532 1532 1533 1533 1534 1533 1533 1533 1533 1533 1532 1532 1531 1529 1527 1525 1524 1523 1522 1520 1519 1518 1517 1516 1514
1501 1499 1498 1497 1496 1495 1494 1494 1494 1495 1495 1495 1494 1494 1494 1494 1494 1494 1494 1495 1495 1495 1496 1496 1496 1494 1495 1496 1496 1495 1495 1496 1497 1499 1502 1504 1506 1508 1510 1512 1514 1515 1516 1516 1517 1518 1519 1520 1521 1523 1524 1525 1526 1526 1527 1527 1528 1529 1529 1530 1531 1531 1532 1532 1532 1531 1531 1532 1532 1531 1530 1529 1528 1526 1524 1523 1523 1522 1521 1519 1518 1516 1515 1513 1512
1499 1498 1497 1495 1494 1493 1492 1491 1490 1490 1490 1491 1491 1490 1490 1490 1490 1490 1490 1490 1490 1491 1491 1492 1492 1492 1492 1492 1493 1493 1494 1495 1496 1498 1500 1502 1504 1507 1508 1510 1513 1514 1515 1515 1516 1517 1518 1519 1521 1522 1522 1523 1524 1525 1525 1526 1527 1528 1528 1529 1530 1530 1530 1530 1529 1529 1529 1530 1530 1529 1528 1527 1525 1524 1523 1522 1521 1520 1519 1517 1516 1514 1513 1512 1510
1496 1495 1494 1493 1492 1491 1490 1488 1488 1487 1486 1487 1487 1486 1486 1486 1486 1486 1486 1486 1486 1486 1487 1488 1489 1489 1488 1488 1489 1491 1492 1493 1494 1496 1499 1501 1503 1505 1507 1509 1511 1512 1513 1514 1515 1516 1517 1519 1520 1521 1521 1522 1523 1523 1524 1525 1526 1527 1528 1528 1529 1528 1528 1527 1527 1527 1528 1528 1527 1526 1525 1524 1523 1522 1521 1520 1519 1518 1517 1515 1514 1512 1511 1509 1508
1493 1491 1490 1489 1488 1488 1487 1486 1485 1485 1484 1483 1483 1482 1482 1482 1482 1482 1483 1483 1482 1482 1482 1483 1484 1485 1485 1485 1487 1488 1490 1491 1493 1495 1498 1500 1502 1504 1505 1507 1508 1510 1512 1513 1514 1516 1517 1518 1518 1519 1520 1521 1522 1522 1523 1524 1525 1526 1526 1527 1528 1527 1527 1526 1526 1526 1526 1525 1524 1524 1523 1522 1521 1521 1520 1519 1517 1516 1514 1513 1512 1510 1509 1508 1506
1489 1488 1487 1486 1485 1485 1484 1483 1482 1481 1480 1480 1479 1478 1478 1478 1478 1478 1478 1478 1478 1479 1479 1479 1481 1483 1483 1484 1485 1486 1486 1488 1491 1495 1498 1500 1502 1504 1505 1505 1507 1509 1511 1513 1514 1515 1516 1516 1517 1518 1519 1519 1521 1522 1523 1523 1524 1525 1525 1525 1526 1526 1525 1525 1525 1525 1524 1523 1522 1521 1520 1520 1520 1519 1518 1517 1515 1514 1512 1511 1510 1508 1507 1506 1504
1486 1485 1485 1484 1483 1482 1481 1480 1479 1478 1477 1476 1476 1475 1474 1474 1474 1474 1474 1475 1475 1476 1476 1477 1478 1480 1481 1482 1484 1485 1485 1486 1490 1495 1498 1499 1501 1503 1504 1505 1506 1508 1510 1512 1513 1515 1515 1516 1516 1517 1517 1518 1520 1521 1522 1522 1523 1524 1524 1524 1524 1524 1523 1524 1523 1523 1522 1521 1520 1519 1519 1519 1519 1518 1517 1515 1513 1512 1511 1509 1508 1507 1505 1504 1503
1484 1483 1482 1480 1479 1478 1477 1476 1476 1475 1474 1474 1473 1473 1472 1471 1470 1470 1470 1471 1472 1473 1474 1475 1476 1477 1479 1480 1482 1484 1485 1486 1489 1493 1495 1496 1498 1501 1503 1504 1506 1507 1509 1511 1512 1513 1514 1515 1515 1515 1516 1518 1519 1519 1520 1521 1522 1522 1522 1522 1522 1522 1522 1522 1522 1521 1520 1520 1519 1518 1518 1518 1518 1517 1515 1514 1512 1510 1509 1508 1506 1505 1503 1502 1501
1481 1480 1478 1477 1476 1475 1474 1473 1472 1472 1471 1471 1471 1470 1470 1469 1468 1467 1467 1467 1468 1470 1471 1472 1474 1475 1477 1478 1479 1481 1484 1486 1487 1489 1491 1493 1496 1499 1501 1504 1506 1507 1508 1509 1511 1512 1513 1514 1515 1515 1515 1516 1517 1517 1518 1519 1519 1520 1520 1521 1521 1521 1521 1521 1520 1520 1519 1518 1517 1517 1518 1517 1516 1515 1514 1512 1511 1509 1507 1506 1505 1503 1502 1501 1499
1479 1477 1475 1474 1473 1472 1471 1470 1469 1468 1468 1468 1468 1468 1467 1467 1466 1466 1465 1464 1465 1465 1466 1468 1471 1472 1474 1475 1477 1478 1481 1483 1485 1487 1490 1492 1495 1497 1499 1503 1505 1506 1507 1508 1510 1511 1513 1514 1514 1514 1515 1515 1515 1516 1517 1517 1517 1517 1518 1519 1520 1520 1520 1520 1520 1520 1519 1517 1516 1517 1517 1516 1515 1513 1512 1511 1509 1507 1506 1505 1503 1502 1501 1499 1498
1476 1474 1472 1471 1470 1468 1467 1466 1465 1465 1464 1464 1464 1464 1465 1464 1464 1463 1463 1463 1462 1463 1463 1464 1466 1468 1470 1472 1474 1475 1477 1479 1482 1485 1488 1490 1493 1495 1497 1499 1501 1502 1504 1506 1508 1510 1511 1512 1513 1513 1514 1514 1514 1514 1515 1515 1516 1516 1517 1517 1518 1519 1519 1519 1519 1518 1517 1516 1515 1516 1515 1514 1513 1512 1511 1509 1507 1506 1505 1504 1502 1501 1499 1498 1496
1474 1472 1470 1469 1467 1465 1464 1463 1462 1461 1461 1461 1461 1461 1461 1461 1461 1461 1461 1461 1461 1462 1462 1462 1462 1465 1468 1469 1471 1473 1474 1477 1480 1483 1485 1487 1490 1492 1493 1494 1495 1498 1501 1504 1506 1508 1509 1510 1512 1512 1513 1513 1512 1513 1514 1515 1515 1515 1515 1516 1517 1517 1517 1518 1518 1517 1516 1515 1515 1515 1515 1514 1512 1511 1509 1508 1506 1505 1504 1502 1501 1499 1497 1496 1494
1473 1471 1469 1467 1465 1463 1461 1460 1459 1458 1458 1458 1458 1458 1458 1458 1458 1458 1458 1459 1459 1459 1460 1460 1460 1462 1465 1466 1468 1470 1473 1476 1478 1480 1481 1484 1487 1489 1490 1491 1492 1495 1499 1502 1505 1507 1508 1509 1510 1511 1511 1511 1512 1513 1514 1514 1514 1514 1513 1514 1515 1516 1516 1516 1516 1515 1515 1514 1514 1514 1514 1512 1511 1510 1508 1506 1505 1504 1502 1501 1499 1497 1495 1494 1492
1471 1470 1468 1466 1464 1461 1460 1458 1457 1456 1456 1455 1455 1455 1455 1455 1455 1455 1455 1456 1457 1457 1457 1458 1459 1460 1462 1464 1466 1469 1471 1473 1475 1476 1478 1480 1482 1484 1488 1491 1493 1495 1499 1502 1504 1505 1506 1507 1508 1509 1510 1510 1512 1513 1513 1513 1513 1512 1512 1513 1515 1515 1515 1515 1515 1514 1514 1513 1513 1513 1512 1511 1510 1508 1507 1505 1504 1502 1501 1499 1497 1495 1493 1492 1491
1470 1468 1467 1464 1462 1460 1459 1457 1456 1455 1454 1454 1453 1453 1452 1452 1452 1452 1452 1453 1455 1455 1455 1456 1458 1459 1460 1462 1465 1466 1468 1470 1471 1472 1474 1477 1480 1481 1485 1490 1493 1496 1499 1500 1501 1503 1505 1506 1507 1508 1509 1510 1512 1512 1512 1512 1511 1511 1512 1513 1514 1514 1514 1515 1515 1514 1513 1513 1512 1512 1511 1509 1508 1506 1505 1504 1502 1500 1498 1496 1495 1493 1492 1490 1489
1469 1468 1465 1463 1461 1459 1457 1456 1455 1454 1453 1453 1452 1451 1450 1449 1450 1450 1451 1453 1454 1454 1455 1456 1457 1458 1459 1461 1463 1465 1466 1467 1468 1470 1472 1476 1480 1483 1484 1488 1492 1495 1497 1498 1499 1502 1504 1506 1507 1508 1508 1509 1511 1511 1511 1510 1510 1510 1511 1513 1513 1514 1514 1514 1514 1513 1512 1511 1511 1510 1509 1507 1505 1504 1503 1502 1500 1498 1496 1495 1493 1492 1491 1489 1488
1469 1467 1465 1463 1461 1459 1457 1456 1454 1453 1453 1452 1451 1450 1449 1448 1449 1450 1451 1452 1453 1454 1455 1456 1457 1457 1459 1460 1462 1464 1465 1466 1468 1470 1472 1475 1479 1483 1485 1488 1492 1494 1495 1496 1499 1501 1504 1505 1506 1506 1507 1508 1509 1510 1509 1509 1509 1510 1511 1512 1512 1512 1512 1513 1512 1511 1511 1510 1509 1508 1507 1504 1503 1502 1501 1500 1498 1497 1496 1494 1493 1491 1490 1489 1487
1468 1467 1465 1463 1461 1460 1458 1456 1455 1454 1453 1452 1451 1450 1449 1449 1449 1450 1451 1451 1452 1453 1454 1455 1456 1457 1459 1460 1462 1463 1465 1466 1468 1471 1473 1476 1479 1482 1485 1489 1491 1493 1494 1496 1499 1501 1502 1503 1504 1505 1505 1506 1507 1508 1508 1508 1509 1510 1510 1510 1510 1510 1511 1511 1511 1510 1509 1509 1508 1507 1505 1503 1502 1501 1500 1499 1498 1496 1495 1493 1492 1490 1489 1488 1487
1468 1467 1465 1464 1462 1461 1459 1458 1456 1455 1454 1453 1452 1451 1450 1450 1450 1450 1451 1452 1452 1453 1454 1455 1456 1458 1460 1460 1462 1464 1465 1467 1469 1471 1474 1477 1480 1483 1486 1488 1490 1493 1495 1497 1498 1499 1501 1502 1503 1504 1504 1505 1506 1507 1507 1507 1508 1509 1509 1509 1509 1509 1509 1509 1509 1509 1508 1508 1507 1505 1504 1502 1501 1501 1500 1498 1496 1495 1494 1492 1491 1490 1489 1488 1486
1469 1468 1466 1465 1464 1462 1461 1460 1458 1457 1456 1455 1454 1453 1453 1452 1451 1451 1452 1453 1453 1454 1455 1456 1457 1459 1461 1461 1463 1465 1466 1467 1470 1473 1475 1478 1482 1484 1487 1488 1490 1493 1495 1496 1497 1499 1501 1502 1502 1502 1502 1503 1504 1504 1505 1506 1507 1507 1507 1507 1507 1507 1508 1508 1508 1507 1507 1507 1505 1504 1503 1502 1500 1500 1499 1497 1495 1494 1493 1492 1491 1490 1488 1487 1485
1469 1467 1466 1466 1465 1464 1463 1462 1460 1459 1459 1458 1457 1456 1455 1455 1454 1453 1454 1454 1455 1456 1456 1457 1458 1460 1462 1463 1465 1465 1466 1468 1471 1474 1477 1480 1482 1484 1486 1488 1490 1492 1493 1495 1496 1498 1500 1501 1501 1500 1501 1502 1502 1503 1504 1505 1506 1506 1506 1506 1506 1506 1506 1507 1507 1506 1506 1505 1504 1503 1503 1501 1500 1498 1497 1496 1495 1494 1494 1493 1491 1490 1488 1486 1485
1469 1468 1467 1466 1466 1465 1464 1463 1462 1461 1461 1460 1459 1458 1458 1457 1456 1456 1457 1457 1458 1458 1458 1458 1459 1461 1463 1465 1466 1467 1468 1470 1472 1475 1479 1482 1483 1484 1487 1489 1490 1491 1492 1494 1495 1496 1498 1499 1499 1500 1500 1501 1502 1503 1504 1505 1505 1505 1505 1505 1505 1506 1506 1506 1505 1505 1505 1504 1504 1503 1502 1501 1499 1498 1496 1495 1495 1495 1494 1493 1491 1489 1488 1486 1484
1471 1469 1468 1467 1466 1466 1465 1464 1464 1463 1462 1461 1461 1461 1461 1461 1460 1460 1460 1460 1461 1461 1462 1462 1463 1464 1465 1467 1468 1469 1471 1473 1474 1476 1479 1482 1484 1486 1489 1489 1489 1490 1492 1493 1494 1495 1496 1497 1498 1499 1500 1500 1501 1503 1504 1504 1504 1504 1504 1505 1505 1505 1505 1505 1504 1504 1504 1504 1503 1502 1501 1500 1499 1498 1496 1495 1495 1495 1494 1493 1491 1489 1487 1486 1484
1473 1471 1469 1468 1467 1466 1466 1465 1465 1464 1463 1463 1462 1462 1463 1463 1462 1462 1462 1462 1461 1462 1463 1464 1465 1466 1467 1468 1469 1471 1473 1476 1477 1478 1480 1482 1485 1487 1489 1489 1489 1490 1492 1493 1494 1495 1496 1497 1498 1499 1500 1500 1501 1502 1503 1503 1503 1503 1504 1504 1505 1505 1504 1504 1504 1503 1503 1503 1502 1501 1501 1500 1499 1497 1496 1495 1495 1495 1494 1492 1490 1489 1487 1486 1484
1475 1473 1471 1470 1468 1467 1466 1466 1465 1465 1464 1463 1463 1463 1463 1463 1463 1464 1464 1463 1462 1462 1463 1464 1465 1466 1467 1468 1470 1472 1474 1476 1478 1479 1481 1483 1485 1487 1489 1489 1489 1491 1492 1493 1494 1495 1496 1497 1498 1499 1499 1500 1501 1502 1502 1503 1503 1503 1504 1504 1504 1504 1504 1504 1503 1503 1502 1502 1501 1501 1500 1499 1498 1497 1495 1495 1495 1494 1493 1492 1490 1489 1487 1486 1485
1478 1476 1474 1472 1470 1469 1468 1467 1466 1465 1464 1464 1464 1463 1463 1463 1464 1464 1465 1465 1464 1464 1464 1464 1465 1466 1468 1469 1471 1473 1475 1476 1478 1479 1481 1483 1485 1487 1488 1489 1490 1492 1493 1493 1494 1495 1496 1497 1498 1498 1499 1500 1501 1501 1502 1502 1503 1504 1504 1504 1504 1504 1504 1503 1503 1502 1502 1501 1501 1500 1500 1499 1498 1496 1495 1495 1495 1494 1493 1492 1490 1489 1487 1486 1485
1480 1478 1477 1475 1473 1472 1471 1470 1468 1467 1467 1466 1465 1465 1464 1464 1464 1465 1465 1466 1466 1466 1466 1467 1467 1468 1469 1471 1472 1474 1476 1478 1479 1481 1483 1484 1486 1488 1489 1490 1491 1492 1493 1493 1494 1495 1496 1497 1497 1498 1499 1500 1500 1501 1502 1503 1503 1503 1504 1504 1504 1504 1504 1503 1503 1502 1502 1501 1501 1500 1500 1499 1497 1496 1495 1495 1494 1493 1492 1492 1491 1489 1488 1487 1485